RH
33 33 34 35 36 37 38 39 40 40 41 42 42 42 42 43 43 44 44 44 44 44 44 44 45 45 44 43 43 42 43 44 46 48 50 51 52 54 54 55 54 53 65 83 89 89 92 96 101 106 106 106 106 106 105 103 103 104 104 103 101 104 106
30 30 31 31 32 33 34 36 37 38 39 40 41 42 42 43 43 44 44 44 44 44 44 44 45 45 45 44 44 45 45 45 46 47 50 53 56 60 62 63 63 61 64 76 85 89 93 99 102 104 105 106 107 108 107 106 105 104 105 106 105 106 110
27 27 27 27 28 28 29 30 32 34 37 38 39 41 41 42 42 42 43 43 43 43 43 44 44 45 45 45 45 46 47 47 48 48 49 52 55 61 67 70 72 72 73 78 85 88 92 101 106 106 105 103 104 106 104 103 104 102 102 105 104 103 105
25 24 24 25 25 26 26 27 28 30 32 35 37 39 40 41 40 40 41 42 43 45 45 45 46 46 47 47 47 49 50 50 51 51 50 51 52 56 62 68 74 78 81 84 88 90 89 93 100 104 105 105 104 103 101 100 101 101 101 101 101 100 101
23 23 22 23 23 24 25 27 29 29 30 31 33 35 37 38 39 39 40 41 42 45 47 49 50 50 50 51 51 52 53 54 54 54 53 52 52 53 54 58 63 69 74 80 88 93 91 91 94 98 102 105 105 104 104 102 100 101 102 100 100 101 100
22 22 22 22 22 24 26 28 30 30 30 30 31 33 35 36 37 38 39 41 42 44 48 51 53 54 54 55 56 57 57 58 58 57 56 55 54 53 53 54 56 59 62 67 75 83 88 91 95 98 101 103 102 102 104 105 103 103 102 101 103 103 100
22 23 23 24 24 25 26 28 28 28 28 29 31 33 34 35 36 36 37 40 43 45 49 52 54 56 57 58 59 60 60 61 61 60 60 59 59 58 58 58 59 60 61 63 66 72 77 83 90 96 101 103 101 100 102 104 106 106 105 105 106 103 101
26 26 27 27 26 27 27 28 27 27 26 27 28 30 33 35 37 38 40 41 43 45 48 51 55 58 61 63 64 65 66 66 66 64 64 63 61 60 59 60 61 62 64 65 67 70 72 76 81 90 98 102 101 102 104 104 104 105 106 105 104 103 105
30 31 33 33 32 31 30 29 28 26 26 26 27 30 32 35 37 39 41 43 45 47 48 50 54 58 62 65 66 68 69 69 67 65 64 63 60 58 56 56 57 59 61 64 65 67 69 70 75 83 91 97 101 104 105 104 104 106 107 106 104 103 106
36 39 41 42 41 39 37 35 32 30 30 29 30 32 33 35 36 38 40 41 42 43 45 46 48 52 56 58 58 58 56 55 54 52 51 52 51 52 52 51 52 54 57 59 62 65 67 67 70 76 81 87 93 98 101 102 102 104 104 104 104 103 104
42 46 50 52 51 49 45 41 38 37 36 34 34 34 35 36 37 39 40 39 38 38 39 40 42 44 47 48 47 46 45 46 49 51 55 58 61 64 64 63 62 62 61 62 64 67 70 71 74 78 80 82 85 88 90 91 94 98 100 100 100 101 103
50 52 56 60 61 59 54 49 46 45 44 43 41 39 39 41 44 46 46 44 43 43 44 46 48 48 49 50 53 56 60 64 68 71 75 78 80 81 79 76 74 71 69 68 67 68 70 72 74 77 82 85 88 89 88 86 85 87 92 95 95 96 101
59 60 63 66 67 67 64 60 57 55 54 53 52 49 49 52 57 60 60 59 59 58 58 61 62 63 65 67 70 72 73 72 71 70 69 67 65 64 61 59 58 57 56 55 54 54 55 56 55 57 63 69 73 77 81 84 84 82 83 87 89 91 95
63 64 66 69 70 70 70 68 67 66 66 65 63 60 59 62 67 70 71 71 71 68 68 68 67 68 70 71 70 67 63 60 57 54 51 48 45 42 40 39 38 37 37 36 36 37 38 40 40 39 43 46 47 50 54 60 65 69 71 76 81 86 90
62 62 63 64 66 68 68 68 69 70 72 72 70 67 64 65 69 70 70 69 68 65 64 63 61 60 58 57 54 50 47 44 42 40 39 38 37 34 32 31 30 30 29 28 28 29 31 35 37 37 39 40 40 39 40 41 44 47 51 57 63 71 81
60 60 60 59 60 61 62 61 62 63 66 68 68 67 65 64 64 64 63 60 57 55 54 52 49 47 44 42 40 37 34 32 30 30 30 30 31 30 30 30 30 29 28 27 26 27 28 31 34 37 41 44 46 46 45 45 44 44 46 47 48 53 62
58 58 60 60 60 60 60 58 56 56 56 56 56 56 56 56 55 53 52 48 45 43 41 39 37 36 34 33 32 31 29 28 27 27 27 27 28 29 30 31 31 29 29 28 29 29 30 32 34 37 40 44 47 49 48 47 48 49 50 47 44 48 53
55 56 58 60 61 61 60 58 54 51 50 48 45 43 42 41 40 39 38 36 33 32 31 30 29 28 28 28 28 28 27 27 27 27 28 29 30 31 33 34 32 32 32 33 33 34 36 38 39 41 42 43 45 46 44 42 43 48 49 44 41 44 48
53 54 55 56 56 56 56 53 50 46 43 41 37 34 31 30 29 28 28 27 27 26 26 26 25 24 24 24 24 25 26 26 26 26 27 28 29 30 32 33 33 34 37 38 38 38 39 41 42 42 42 42 42 41 39 36 34 37 40 39 37 39 41
51 53 52 52 51 51 50 48 45 42 38 35 32 29 27 25 25 25 25 25 25 24 24 23 23 22 22 23 24 25 25 25 25 25 26 27 28 29 31 31 33 35 37 38 39 39 40 41 42 43 42 41 41 40 38 36 32 31 32 32 32 34 35
48 49 49 48 46 45 43 41 39 37 34 30 28 26 25 24 24 24 24 25 25 25 24 24 23 23 23 24 24 25 26 27 27 27 28 29 30 31 32 33 34 36 36 37 37 38 39 39 40 41 41 40 39 39 38 37 34 31 30 28 28 29 30
42 43 44 44 42 39 37 35 34 32 30 28 26 25 25 24 24 24 24 25 26 25 25 25 24 24 25 26 27 28 28 29 30 30 32 34 35 37 39 41 44 46 47 48 49 49 51 52 51 51 50 48 47 46 46 46 43 40 36 33 30 29 30
39 40 41 40 38 36 34 32 31 30 28 27 27 26 26 26 25 25 25 26 26 26 27 27 27 28 29 29 30 32 33 34 37 40 43 47 50 53 57 59 62 64 66 66 67 67 67 67 66 64 63 61 59 57 58 58 56 54 51 47 43 39 38
38 38 39 38 37 34 32 31 31 30 29 29 28 28 28 28 27 28 28 28 29 30 31 32 33 35 37 39 41 43 46 50 54 58 62 65 67 68 69 71 72 72 71 71 71 71 70 69 67 65 63 62 59 58 58 59 58 56 54 51 48 44 42
37 37 37 36 36 34 33 33 32 31 31 30 31 31 31 30 30 31 31 31 33 35 37 41 47 51 55 58 60 62 64 67 68 70 71 72 72 72 72 72 72 71 70 70 70 69 68 67 66 65 63 61 58 56 56 55 55 53 51 48 46 43 41
36 37 37 36 35 35 35 34 33 33 32 32 33 34 34 34 34 34 35 37 41 46 53 60 67 71 73 73 73 72 73 74 74 73 73 73 73 73 72 71 71 70 69 67 66 65 63 62 61 59 56 52 49 48 46 45 44 43 40 38 36 34 33
37 37 36 36 35 35 35 35 34 34 34 34 36 37 38 39 41 43 47 51 56 62 68 74 77 78 78 78 78 78 78 78 77 76 76 75 73 71 70 69 67 65 63 61 59 57 55 53 50 46 42 38 34 31 30 28 26 25 23 22 20 19 19
39 39 38 37 38 38 38 38 38 38 38 40 42 44 46 49 53 57 61 65 68 72 76 79 80 79 79 79 80 80 80 79 78 77 76 74 71 68 66 64 62 60 57 54 51 48 44 39 34 29 25 22 19 17 16 15 14 13 13 12 12 12 11
45 43 41 41 43 43 44 45 45 44 45 48 51 53 57 60 63 67 70 73 75 78 81 82 81 79 78 78 78 79 80 79 79 78 77 74 70 67 63 60 56 52 48 42 37 32 27 23 19 17 15 14 13 13 12 12 12 12 12 12 11 12 12
54 52 50 50 51 51 52 53 53 53 55 58 60 61 63 66 69 73 75 77 79 81 83 82 79 77 78 78 78 80 81 81 80 79 76 72 68 64 58 51 43 36 30 25 21 18 16 15 14 14 14 13 13 13 12 12 12 12 12 12 11 12 12
63 61 60 60 61 62 62 61 62 64 66 68 67 66 67 70 73 76 77 78 80 82 82 79 77 78 79 79 80 80 80 78 76 72 68 63 57 49 41 33 27 22 19 18 17 16 16 16 16 15 15 14 13 12 12 11 11 11 10 11 10 10 11
70 69 68 69 70 71 71 72 73 75 76 76 73 71 71 74 77 79 79 78 80 82 81 78 77 77 77 76 75 73 70 67 63 57 51 45 37 30 24 21 19 19 18 18 18 18 17 17 16 16 16 15 13 13 12 11 11 11 11 11 10 10 10
67 68 69 72 73 75 77 80 83 83 82 80 77 75 75 77 79 80 78 77 77 77 75 73 71 71 69 67 64 60 55 49 43 37 31 27 23 20 19 19 19 20 20 20 20 20 19 19 19 18 18 17 16 15 14 13 12 12 12 12 11 11 11
59 60 62 66 69 71 76 81 86 86 84 80 76 75 76 77 77 75 72 70 69 67 64 63 62 59 56 51 45 40 35 30 26 24 22 21 21 21 21 21 21 22 23 23 22 22 21 20 20 19 18 17 15 14 13 12 12 11 11 11 11 11 10
51 51 53 57 59 62 67 73 77 78 75 71 68 68 69 70 70 67 63 60 58 55 53 50 47 42 37 32 28 25 24 22 22 22 22 23 24 24 24 23 24 24 23 23 22 20 20 19 18 17 16 15 14 13 13 12 12 12 12 12 11 11 10
43 42 43 45 48 53 59 63 63 62 60 58 57 58 59 60 58 54 50 45 42 39 37 34 30 26 23 22 23 23 23 24 24 24 26 26 26 26 25 24 23 22 21 20 19 18 18 17 17 16 16 15 15 14 13 13 13 12 12 12 12 11 11
Wind_Speed
88 87 87 87 88 88 89 90 90 91 92 93 94 95 96 97 98 99 101 102 103 104 104 105 106 107 107 107 107 107 107 107 108 108 109 109 109 110 110 110 110 108 107 110 112 113 113 113 113 113 113 114 114 115 115 116 116 116 117 117 117 117 118
90 90 90 90 90 90 90 91 92 93 94 94 95 97 98 99 100 101 102 103 104 105 106 107 107 108 109 109 109 110 110 110 110 110 110 110 110 110 111 112 112 111 109 109 111 112 112 113 114 114 114 114 115 115 116 116 117 117 118 118 119 119 119
93 92 92 92 92 92 92 92 92 93 94 95 96 97 99 100 101 102 103 104 105 107 107 108 109 110 110 111 111 111 112 112 112 111 111 111 111 111 111 112 113 112 111 111 112 113 113 114 115 115 116 117 117 117 118 118 118 119 119 120 120 120 121
94 93 93 93 93 93 93 93 93 93 94 95 96 98 99 101 102 103 104 105 106 107 108 109 109 110 111 112 112 112 113 113 113 113 113 112 112 112 112 112 113 113 113 112 113 114 115 115 116 117 118 119 120 120 120 121 121 121 122 122 123 123 123
94 94 93 93 93 92 92 92 93 94 95 95 97 98 99 101 102 103 104 105 106 107 108 109 109 110 111 112 112 113 113 114 114 114 114 114 113 113 113 113 113 113 113 113 113 114 115 116 116 117 118 119 121 121 123 124 124 125 125 125 126 126 126
92 92 92 92 91 91 91 92 93 94 95 95 96 98 99 100 101 102 103 104 105 106 107 108 109 110 110 111 112 112 113 114 114 114 114 114 114 114 114 114 113 113 113 112 112 113 114 116 117 117 118 119 120 121 122 123 124 126 127 128 128 129 129
90 90 90 90 90 89 90 91 92 93 94 94 95 97 98 100 100 101 102 102 104 105 106 107 108 108 109 110 110 111 112 113 113 114 114 114 114 114 114 114 114 114 113 113 112 112 113 114 116 117 117 119 119 120 121 122 123 124 125 127 128 128 129
88 87 87 88 88 88 88 90 91 91 92 92 93 94 96 97 99 99 100 100 101 102 103 104 105 106 107 108 109 110 110 111 112 112 113 113 113 114 114 114 114 113 113 113 112 112 113 114 115 116 117 118 119 120 121 122 123 123 124 125 126 126 127
86 85 85 86 86 86 87 88 89 90 90 90 90 91 92 94 96 97 97 98 99 100 100 101 102 103 104 105 107 108 109 110 111 112 112 112 113 113 113 113 113 113 113 113 113 113 113 114 114 115 117 118 119 120 121 123 124 124 124 125 125 125 125
86 85 85 85 85 85 86 87 87 88 88 88 88 89 90 92 93 94 95 96 97 98 99 100 101 102 103 105 106 108 109 110 111 111 111 111 111 112 112 112 112 112 113 113 112 113 113 114 115 116 117 118 119 121 122 123 124 125 125 126 126 125 125
86 85 85 84 85 85 85 86 86 86 87 87 88 88 88 90 91 92 94 95 96 97 97 99 100 101 103 104 105 106 107 107 107 107 107 108 109 109 110 111 111 112 112 112 112 112 112 113 114 116 118 119 120 121 122 122 123 124 125 126 126 125 126
87 86 85 85 85 85 85 85 85 86 86 87 87 87 87 88 89 91 93 94 95 96 96 97 98 99 100 101 101 102 102 102 103 103 104 106 107 108 109 110 111 112 112 112 112 112 112 113 114 115 117 118 120 121 122 122 123 123 124 125 126 125 126
87 87 86 85 85 85 86 86 86 86 86 86 87 87 86 87 88 90 92 93 94 95 95 96 97 98 98 98 99 100 101 101 102 103 104 105 106 107 108 109 110 110 111 112 112 112 112 113 114 114 115 117 119 120 121 122 123 123 123 124 124 125 125
87 87 86 86 86 86 86 86 87 87 87 87 88 88 87 87 88 90 91 92 93 94 95 96 96 97 98 99 100 101 102 102 103 103 103 104 105 105 105 106 107 108 109 109 109 110 110 111 112 113 114 115 116 117 118 119 120 122 123 123 123 123 124
87 87 87 86 86 86 86 87 87 87 88 88 89 89 88 88 89 91 92 93 94 94 94 95 96 96 97 99 100 101 102 102 102 102 102 103 103 104 104 104 105 106 106 107 107 107 107 108 110 111 112 113 114 115 115 116 116 117 118 120 120 120 122
87 87 87 87 86 86 87 87 87 88 88 89 89 90 90 90 90 91 93 93 94 94 95 95 96 96 97 98 99 100 100 100 100 100 101 101 101 102 102 103 103 104 104 104 104 104 105 105 107 108 110 111 112 113 114 114 113 113 113 115 115 114 115
87 87 87 87 87 87 87 88 88 88 88 89 89 89 89 90 91 92 93 94 94 94 95 95 95 96 96 96 97 98 98 98 98 98 99 99 100 100 101 102 102 103 102 102 102 103 103 104 105 106 107 108 109 110 111 111 110 110 111 111 110 109 110
86 86 86 87 87 87 87 88 88 88 89 89 89 88 88 89 90 91 92 93 93 94 94 94 94 94 94 94 94 95 96 96 96 96 97 97 98 99 100 101 101 101 100 101 101 102 102 103 103 104 105 105 106 107 108 108 107 107 109 109 108 107 107
85 85 86 86 86 87 87 87 88 88 88 89 89 89 88 89 89 90 90 91 91 92 92 92 92 92 92 91 92 92 93 93 94 94 94 95 95 96 97 98 98 98 98 99 100 100 101 101 102 103 103 104 105 106 107 107 106 106 107 107 106 106 106
85 85 85 85 85 86 86 86 87 87 87 88 89 89 88 88 89 89 89 89 90 90 90 90 90 90 90 89 89 90 91 91 91 91 91 92 92 93 94 95 95 96 96 97 98 99 99 100 100 101 102 103 104 105 106 107 106 106 106 106 105 105 105
85 84 84 85 85 85 85 85 85 86 86 87 88 88 88 88 88 88 88 88 89 89 89 89 88 88 88 88 88 89 89 90 90 90 90 90 91 92 92 93 93 94 95 96 96 97 97 98 99 100 101 102 103 104 105 106 107 107 107 107 106 105 105
84 84 84 85 85 84 84 83 82 83 85 85 86 86 86 86 86 86 86 86 87 87 87 87 87 87 87 87 88 88 89 89 89 89 89 89 90 90 91 91 92 93 94 94 95 95 96 97 98 99 100 101 102 103 104 105 106 107 108 108 107 106 106
83 83 83 84 84 84 83 81 81 81 82 83 83 83 84 84 84 84 84 84 84 85 85 85 86 86 87 87 88 88 88 88 88 88 88 88 89 89 90 91 91 92 93 94 95 96 97 98 99 100 100 102 103 104 105 105 106 107 109 109 109 108 106
81 81 81 82 83 83 82 80 80 80 80 80 80 81 82 82 83 83 83 82 82 83 83 84 84 85 86 87 87 86 86 86 86 86 87 88 89 90 90 91 92 93 94 95 96 97 98 99 100 101 101 102 103 104 105 106 107 108 108 109 109 109 108
79 79 80 80 80 81 80 80 79 79 79 78 78 79 80 81 81 81 81 81 80 80 81 81 82 83 84 85 85 85 85 86 86 87 87 88 89 90 91 92 93 94 95 96 97 98 99 100 101 102 103 103 104 105 106 107 107 108 109 109 109 109 108
77 78 78 78 78 78 79 79 79 79 78 77 77 78 79 79 80 80 79 78 78 78 79 79 80 82 83 84 84 85 85 86 87 88 88 89 90 91 92 93 94 95 96 97 98 99 100 101 102 103 103 104 104 105 106 107 107 108 108 109 109 108 108
75 76 76 76 76 76 77 78 79 78 77 76 76 77 77 77 78 77 77 76 77 77 78 79 81 82 83 84 84 85 86 87 88 89 90 91 92 93 94 95 95 96 97 98 99 99 100 101 102 102 103 103 103 103 104 105 105 105 105 106 106 105 105
73 74 75 74 74 75 76 77 78 78 77 76 75 75 75 76 76 76 76 76 77 77 78 80 82 83 84 84 85 86 87 88 89 90 91 93 93 94 95 96 96 97 97 98 99 99 100 101 101 101 101 101 101 101 102 102 102 102 102 102 102 101 101
73 73 73 73 73 74 74 75 77 77 76 75 75 75 75 75 76 76 77 77 78 78 79 81 83 84 84 85 86 87 88 89 90 91 92 93 94 95 96 96 97 97 97 98 98 98 99 98 98 98 98 97 97 97 97 98 98 97 96 96 96 96 96
72 73 72 72 73 73 73 74 75 76 76 76 76 76 76 76 77 78 78 79 79 80 81 83 84 85 86 87 88 88 89 90 91 92 93 94 95 95 96 96 96 96 96 96 96 96 95 94 94 94 93 93 92 92 92 92 92 92 92 91 91 91 91
72 73 72 72 72 73 73 74 75 76 76 77 77 78 78 78 79 80 81 81 82 82 83 84 85 86 87 88 89 89 90 91 91 92 93 93 94 94 94 94 94 94 93 93 93 92 92 91 91 91 91 90 90 89 89 89 89 88 88 87 86 86 87
74 73 73 73 73 73 74 74 75 76 77 79 79 80 80 80 81 82 83 83 83 83 85 86 87 88 89 89 89 90 90 90 91 91 92 92 93 93 92 91 90 90 90 90 90 90 90 89 89 88 88 88 88 87 87 86 86 85 85 84 83 83 84
76 75 75 74 74 74 74 75 76 77 79 80 81 81 81 82 83 84 84 84 84 84 86 87 88 88 89 89 89 89 89 89 90 90 90 91 90 89 89 88 87 87 87 87 87 87 87 86 85 85 85 84 84 84 83 82 82 81 81 80 80 80 80
77 76 76 76 76 75 75 76 78 80 81 82 82 82 82 83 84 85 85 84 84 85 86 86 87 88 88 87 87 87 87 88 88 88 88 87 87 86 86 85 84 84 83 83 83 83 82 82 81 80 80 80 79 79 78 78 77 77 76 76 76 76 76
77 76 76 76 76 76 76 77 79 81 82 83 83 82 83 83 84 85 85 84 84 84 85 86 86 86 86 85 85 85 85 85 85 85 84 84 84 83 82 81 80 80 79 79 78 78 77 77 76 76 75 75 75 74 74 73 73 73 73 73 72 73 73
78 77 76 76 75 75 76 77 79 81 82 82 82 81 82 83 84 84 84 83 83 83 83 84 84 83 82 82 82 82 82 82 82 81 81 80 80 79 78 77 76 75 75 74 74 73 73 73 72 72 71 71 71 70 70 70 70 70 70 70 69 69 70
Wind_Direction
281 280 278 276 274 273 272 271 270 269 268 267 267 266 266 265 264 264 264 264 263 263 263 263 263 264 264 264 264 263 263 263 262 262 263 263 263 263 263 263 262 262 260 260 261 262 262 262 262 262 262 262 263 263 263 264 264 264 265 265 266 266 267
282 281 279 277 275 273 271 270 269 268 267 267 266 266 265 265 264 264 263 263 263 263 263 263 263 263 263 264 264 264 263 263 263 262 262 262 263 263 263 263 263 263 262 261 261 262 262 263 263 263 263 263 263 264 264 264 264 265 265 265 266 266 267
283 281 280 278 276 274 272 271 269 267 267 266 266 265 265 264 264 263 263 263 263 263 263 263 263 263 263 263 263 264 264 263 263 263 263 262 262 262 262 263 263 263 263 262 262 262 262 262 262 262 263 263 263 264 264 264 264 265 265 265 266 266 267
283 281 280 278 277 275 274 273 271 269 267 266 265 264 264 263 263 263 263 263 262 263 263 263 263 263 263 263 263 263 263 264 264 264 263 263 263 262 262 262 262 262 262 262 262 262 262 262 261 261 261 262 262 263 263 263 264 264 264 265 265 266 266
282 281 279 278 277 276 274 273 272 270 268 267 266 264 264 263 263 263 263 263 263 262 262 262 262 262 263 263 263 263 264 264 264 264 264 264 264 263 263 262 261 261 261 261 261 261 262 262 262 261 261 261 261 261 261 262 262 263 263 263 264 264 264
281 280 279 278 276 275 274 273 271 270 269 268 267 266 265 264 263 263 263 263 263 263 263 262 262 262 262 263 263 263 263 263 264 264 264 264 264 264 264 263 263 262 262 261 261 261 261 262 262 262 262 261 261 261 261 261 261 261 262 262 262 263 263
281 279 278 277 276 275 273 272 271 270 269 268 267 266 266 266 265 264 264 263 263 263 263 263 263 263 263 263 263 263 263 263 263 263 263 264 264 264 264 264 264 263 263 263 262 262 261 261 261 262 262 262 262 262 262 262 261 261 261 261 262 262 263
280 279 278 276 275 274 273 272 271 270 270 269 268 267 266 266 266 265 265 264 264 263 263 263 263 263 263 263 263 263 263 263 263 263 263 263 263 263 263 263 263 263 263 263 263 262 262 262 262 262 262 262 262 262 262 263 262 262 262 262 262 262 262
280 279 277 276 275 274 273 272 272 271 270 269 268 267 266 266 265 265 264 264 264 263 263 262 262 262 262 262 262 262 262 262 262 262 262 262 262 263 263 263 263 263 262 262 262 262 262 262 262 261 261 261 262 262 262 262 263 263 263 263 263 263 263
280 278 277 276 275 274 273 272 272 271 271 270 269 267 266 266 265 265 264 264 263 263 262 262 261 261 261 261 260 261 261 261 262 262 263 263 264 264 264 264 264 263 263 263 262 262 262 262 262 262 261 261 261 261 261 261 262 262 262 263 263 263 264
280 278 277 276 275 274 274 273 272 271 271 270 269 268 267 266 266 266 265 265 264 263 263 262 262 262 261 261 261 262 262 263 264 264 265 265 265 266 265 265 265 265 265 264 263 263 262 262 262 262 262 262 261 261 261 261 261 261 261 262 262 262 263
280 279 278 277 276 275 274 273 273 272 271 270 270 269 268 267 267 266 266 265 265 265 264 264 264 264 264 264 264 265 265 265 265 265 265 265 265 265 265 265 265 265 265 265 264 264 263 262 262 261 261 261 261 261 261 261 261 261 260 261 261 261 261
280 279 278 277 276 276 275 274 273 273 272 271 271 270 269 268 267 267 266 266 266 266 266 266 266 266 267 267 267 267 266 266 265 265 264 264 264 264 264 264 264 264 264 264 264 264 263 263 262 262 261 261 261 260 260 261 261 261 261 260 261 261 260
279 278 278 277 276 276 275 274 274 273 272 272 271 270 270 269 268 268 267 267 267 267 267 267 267 267 268 267 267 267 267 267 267 266 266 266 266 265 265 265 265 265 264 264 264 264 264 264 264 263 263 262 262 261 260 260 260 260 260 260 260 260 260
278 278 277 276 276 275 274 274 273 273 272 271 271 271 271 270 269 269 269 268 268 268 268 268 268 268 267 267 267 267 267 267 267 267 267 267 267 267 266 266 265 265 265 264 264 264 264 264 264 264 264 264 264 263 262 261 261 260 260 260 259 259 259
278 278 277 277 276 275 274 274 273 272 272 271 271 271 271 270 270 270 269 269 269 269 269 268 268 267 267 267 267 267 267 267 267 267 267 267 267 267 267 267 266 266 265 265 265 265 264 264 263 263 264 264 264 264 264 263 263 262 261 261 260 259 259
278 278 277 277 276 276 275 274 273 273 272 271 271 270 270 270 270 270 270 269 269 269 268 268 267 267 267 266 266 267 267 267 267 267 267 267 267 267 267 267 267 266 266 266 266 266 266 265 264 264 264 264 264 264 264 264 264 264 263 262 262 261 260
278 277 277 276 276 275 274 274 274 273 273 272 272 271 270 270 269 269 269 269 268 268 268 267 267 267 267 266 266 266 266 266 267 267 267 267 267 267 267 267 267 267 267 267 267 266 266 266 266 266 265 265 264 264 264 263 263 263 263 263 263 262 262
278 278 277 276 276 275 274 274 274 273 273 273 273 272 271 271 270 269 269 269 268 268 268 267 267 267 267 267 267 267 267 267 267 266 266 266 266 266 266 266 267 267 267 267 267 266 266 266 266 266 266 266 265 265 265 264 264 263 263 263 263 263 262
279 278 277 276 275 275 274 274 274 273 273 273 273 272 272 271 271 271 270 270 270 269 269 269 269 269 269 269 269 268 268 268 268 267 267 267 267 267 267 267 267 267 267 267 267 266 266 266 266 266 266 266 266 266 266 266 265 264 263 263 263 263 262
279 278 277 276 275 274 274 273 273 273 273 272 272 272 272 272 272 271 271 271 271 271 271 271 270 270 270 270 269 269 269 269 269 268 268 268 268 268 268 268 268 268 268 268 268 267 267 267 267 266 266 266 266 266 266 266 266 266 265 264 263 263 262
279 278 277 277 276 275 274 274 273 273 272 272 272 272 272 272 272 272 271 271 271 271 271 271 271 271 270 270 270 269 269 269 269 269 269 269 269 269 269 269 269 269 269 269 269 269 268 268 268 268 267 267 267 267 267 267 267 267 267 266 265 264 263
279 279 278 278 277 277 276 275 274 273 273 272 272 272 272 272 272 271 271 271 271 271 271 271 271 271 271 270 270 269 269 269 270 270 270 270 269 269 269 269 269 269 269 269 269 269 269 269 269 268 268 268 268 268 268 268 268 268 268 267 267 266 265
279 279 279 278 278 277 277 276 275 274 274 273 273 272 272 272 272 271 271 271 271 271 271 271 271 270 270 270 270 270 269 269 269 269 269 269 269 269 269 269 270 270 270 270 270 270 270 270 270 270 269 269 269 269 269 269 269 268 268 268 268 267 267
279 279 278 278 278 278 278 277 276 275 274 274 273 273 272 272 272 271 271 271 271 271 270 270 270 270 270 270 270 270 271 271 271 270 270 270 270 270 270 271 271 271 271 271 271 271 271 271 271 271 270 270 270 270 269 269 269 269 268 268 268 268 268
279 279 278 278 278 278 278 277 276 275 275 274 273 273 272 272 271 271 271 271 271 271 270 270 270 270 270 271 271 272 272 272 273 272 272 272 272 272 272 272 272 272 272 272 272 272 272 272 271 271 271 271 270 270 269 269 269 268 268 268 268 267 267
280 279 279 279 279 278 278 277 277 276 275 274 273 272 272 271 271 271 271 271 270 270 270 270 270 271 271 272 273 273 273 273 274 274 274 274 274 274 274 274 273 273 274 274 274 273 273 273 272 272 272 271 271 270 270 269 269 268 268 268 268 267 267
281 280 280 280 279 279 278 277 277 276 275 274 273 272 272 271 271 271 271 271 270 270 270 271 271 271 272 273 273 273 273 273 274 274 274 275 275 275 275 275 275 275 275 275 275 274 274 274 273 273 272 272 271 271 270 270 269 269 268 268 268 267 267
282 282 281 280 280 279 278 277 277 276 275 274 273 272 272 272 272 272 271 271 271 271 271 271 271 272 272 272 273 273 273 274 275 275 276 276 276 277 277 277 277 276 276 276 275 275 274 274 273 273 272 272 271 271 270 270 270 269 268 268 268 267 267
283 282 282 281 280 279 278 277 277 276 276 275 274 273 273 272 272 272 272 272 272 272 272 272 272 273 273 273 274 274 275 275 276 276 277 277 277 277 277 277 277 277 277 276 276 275 275 275 274 274 273 273 272 272 271 271 270 270 269 269 268 267 267
282 282 281 281 280 279 278 278 277 276 276 275 275 274 274 274 273 273 273 273 273 274 274 274 274 275 275 275 275 276 276 277 277 277 277 277 277 277 277 277 277 277 277 277 277 276 276 276 276 276 276 275 275 274 273 273 272 272 271 270 269 269 267
282 281 281 280 280 279 279 278 278 277 276 276 275 275 275 275 275 274 274 275 275 276 276 276 276 276 276 276 277 277 277 277 278 278 278 278 277 277 277 277 277 277 277 277 277 277 277 277 277 277 277 276 276 276 275 274 274 273 272 272 271 270 268
282 282 281 280 280 279 279 279 278 277 277 276 276 276 276 276 276 276 276 276 276 276 276 277 277 277 277 277 278 278 278 278 279 278 278 278 278 277 277 277 277 277 277 277 277 277 277 277 277 277 276 276 276 275 275 274 274 273 272 272 271 270 269
283 282 281 281 280 279 279 278 278 277 277 276 276 276 276 277 277 277 277 277 277 277 277 277 278 278 278 279 279 279 279 279 278 278 278 278 278 278 278 278 278 277 277 277 277 277 277 277 276 276 276 275 275 275 274 274 274 273 272 272 271 270 269
283 283 282 281 281 280 280 279 278 277 277 277 277 278 278 278 278 278 279 279 278 278 279 279 279 279 279 280 280 279 279 278 278 278 278 278 278 278 278 278 278 277 277 277 277 276 276 276 276 276 275 275 275 275 274 274 274 273 273 272 271 270 269
284 284 283 282 282 281 280 279 278 278 278 278 279 279 279 279 279 279 279 279 279 279 279 279 279 280 280 280 279 279 278 278 278 278 278 278 278 278 278 278 277 277 277 277 276 276 276 276 276 276 276 276 276 275 275 275 274 273 273 272 271 270 270